This is the latest recevied weather packets stored in our database for station/object N4AN. If no packets are shown the sender has not sent any weather packets the latest 1 day(s).
| Time | Temp. | Humidity | Pressure | Rain* | Wind** | Luminosity | Snow |
|---|---|---|---|---|---|---|---|
| 1778101318 | 27.78° C | 77% | 1010 hPa | 0 mm | - | - | - |
| 1778099515 | 27.22° C | 79% | 1010.2 hPa | 0 mm | - | - | - |
| 1778098614 | 26.67° C | 79% | 1010.3 hPa | 0 mm | - | - | - |
| 1778097413 | 27.22° C | 78% | 1010.5 hPa | 0 mm | - | - | - |
| 1778096512 | 28.33° C | 75% | 1010.5 hPa | 0 mm | - | - | - |
| 1778095371 | 28.89° C | 75% | 1010.7 hPa | 0 mm | - | - | - |
| 1778095311 | 28.89° C | 75% | 1010.7 hPa | 0 mm | - | - | - |
| 1778094710 | 28.33° C | 77% | 1010.8 hPa | 0 mm | - | - | - |
| 1778094403 | 28.33° C | 76% | 1010.9 hPa | 0 mm | - | - | - |
| 1778091699 | 27.78° C | 77% | 1011.2 hPa | 0 mm | - | - | - |
| 1778090645 | 27.78° C | 76% | 1011.3 hPa | 0 mm | - | - | - |
| 1778089140 | 28.33° C | 76% | 1011.6 hPa | 0 mm | - | - | - |
| 1778088840 | 27.78° C | 77% | 1011.7 hPa | 0 mm | - | - | - |
| 1778088238 | 27.78° C | 78% | 1011.7 hPa | 0 mm | - | - | - |
| 1778087330 | 27.78° C | 77% | 1011.7 hPa | 0 mm | - | - | - |
| 1778086124 | 27.78° C | 77% | 1011.9 hPa | 0 mm | - | - | - |
| 1778084295 | 28.33° C | 76% | 1011.9 hPa | 0 mm | - | - | - |
| 1778083995 | 28.33° C | 76% | 1012 hPa | 0 mm | - | - | - |
| 1778081225 | 28.33° C | 77% | 1012.2 hPa | 0 mm | - | - | - |
| 1778080623 | 28.33° C | 78% | 1012 hPa | 0 mm | - | - | - |
| 1778079718 | 27.22° C | 79% | 1011.8 hPa | 0 mm | - | - | - |
| 1778079115 | 27.22° C | 80% | 1011.7 hPa | 0 mm | - | - | - |
| 1778077914 | 26.67° C | 81% | 1011.5 hPa | 0 mm | - | - | - |
| 1778077313 | 26.11° C | 82% | 1011.4 hPa | 0 mm | - | - | - |
| 1778077013 | 26.11° C | 81% | 1011.5 hPa | 0 mm | - | - | - |
* Rain latest hour (hover to see other rain measurements)
** Current wind speed in m/s (hover to see current wind gust speed)